Theta_e
349 348 347 344 345 347 350 351 352 351 351 352 352 352 352 352 352 352 351 351 351 351 350 350 350 348 349 349 350 349 347 348 346 346 345 343 344 346 345 345 345 345 345 345 346 345 345 345 344 342 340 338 339 340 342 343 344 344 344 344 343 343 343 343 342 342 342 342 342 342 342 342 342 342 343 343 343 343 342 342 342 342 342 342 342
352 350 349 348 345 346 350 351 351 351 351 352 351 351 353 353 353 353 352 351 352 351 350 351 350 348 347 346 348 349 348 347 347 346 346 342 343 346 346 345 345 346 345 345 346 346 347 346 345 345 344 342 340 340 340 340 340 341 341 341 342 342 341 341 341 341 341 341 341 341 341 341 341 341 342 342 342 343 342 342 342 342 343 343 343
352 351 351 352 350 349 351 351 353 352 351 352 351 351 353 353 353 353 352 351 351 350 350 351 350 348 345 343 343 346 346 347 348 348 348 345 342 344 346 346 346 347 346 346 347 347 347 347 346 346 346 345 343 342 342 341 340 339 339 340 340 341 340 340 340 341 341 341 342 342 342 342 342 342 341 342 342 342 343 343 343 343 343 343 343
350 350 350 352 353 353 352 352 353 352 350 350 350 350 352 352 351 351 350 350 352 350 349 350 350 347 344 342 340 342 344 345 348 349 348 346 341 342 346 348 348 347 346 347 348 347 346 347 347 346 346 347 346 345 345 345 343 342 342 342 342 342 342 343 342 342 342 343 343 343 342 342 342 342 342 342 342 343 343 343 343 343 343 343 342
348 348 348 350 351 351 352 352 352 351 350 349 349 350 352 353 352 351 351 352 353 352 350 350 349 347 344 343 339 340 342 344 348 349 348 347 343 342 344 346 349 348 347 347 348 348 347 346 347 347 346 347 347 346 346 346 345 345 345 344 344 344 344 345 345 343 343 344 344 344 343 343 343 343 343 343 343 343 343 343 343 343 343 342 341
349 348 348 349 349 349 351 351 350 349 350 349 350 351 352 354 354 353 354 353 354 352 352 351 348 348 345 342 341 339 341 346 348 347 347 347 344 343 343 344 347 349 349 348 347 346 346 346 347 348 347 347 346 347 346 346 346 346 345 345 345 346 346 345 344 344 344 344 344 344 343 343 343 343 343 343 343 343 344 343 343 343 342 342 342
350 349 349 350 350 349 350 350 350 349 350 349 350 351 352 354 354 354 355 354 354 353 352 351 349 348 344 342 342 339 342 347 346 346 347 346 343 342 342 343 345 347 348 349 349 347 345 346 347 348 347 347 347 347 346 346 346 345 345 345 345 346 346 345 344 344 344 343 344 344 343 344 344 344 343 343 343 343 343 343 343 342 342 342 342
350 351 351 351 350 350 350 350 350 350 350 349 349 351 351 353 353 353 355 355 354 354 353 351 350 348 344 342 341 338 342 345 345 347 347 345 344 342 341 342 343 343 344 348 349 348 346 345 346 347 347 347 347 347 347 346 345 345 345 345 346 345 345 345 344 344 344 344 344 344 344 344 344 344 343 343 343 343 343 343 343 342 342 342 342
351 352 352 351 350 350 350 350 350 350 350 350 351 350 351 353 352 352 353 354 354 354 353 351 350 347 343 342 341 338 340 342 343 346 344 342 342 342 342 342 341 341 343 347 348 347 346 345 344 345 346 346 347 347 346 345 345 346 346 346 346 346 346 345 344 344 345 344 344 344 344 344 344 344 344 344 343 343 343 342 342 342 341 342 341
352 352 352 351 350 350 350 351 351 351 351 351 352 351 351 353 353 352 352 352 352 353 353 351 349 347 343 341 339 337 338 339 341 342 343 344 342 340 342 341 342 342 342 344 345 346 347 345 344 345 346 346 346 347 346 345 346 346 346 347 346 346 347 346 345 345 345 345 345 345 345 344 344 344 343 343 343 343 342 340 340 340 340 340 338
351 352 352 352 351 350 351 352 351 351 351 351 353 353 352 353 354 354 352 351 351 352 354 352 348 346 342 340 337 337 338 338 340 341 343 346 342 341 343 342 342 342 340 340 342 344 345 345 345 346 347 346 345 346 346 346 346 346 346 346 347 346 347 346 346 345 345 345 345 345 345 344 343 343 342 342 342 340 338 335 335 337 337 334 328
351 352 352 351 351 351 352 352 351 352 351 352 354 354 353 353 354 354 353 352 351 351 352 350 347 345 341 339 337 336 338 338 340 341 343 344 342 343 345 345 344 343 342 341 341 342 342 343 344 345 346 346 344 344 345 347 347 346 346 346 346 346 346 346 346 346 345 345 345 344 343 341 341 341 338 337 336 333 329 325 325 328 328 323 317
351 351 351 352 351 352 352 352 352 352 352 353 354 354 353 353 354 354 354 354 353 351 350 348 347 345 342 343 341 338 338 339 340 342 343 344 343 342 344 346 347 345 344 342 339 340 340 340 342 343 345 345 345 344 344 345 345 344 344 343 344 344 345 345 346 346 345 344 344 341 337 333 331 330 327 326 324 320 318 317 317 318 318 316 315
350 351 350 351 351 351 352 352 353 353 353 353 352 353 353 353 354 356 355 355 355 352 349 348 347 345 344 345 345 341 340 341 343 344 344 345 344 344 344 344 346 347 345 343 340 339 339 340 341 341 342 343 345 345 344 344 344 343 341 340 341 342 345 345 345 346 344 344 341 335 330 324 319 318 317 317 316 315 315 316 316 316 316 316 317
350 350 351 351 351 351 352 352 353 353 354 353 353 353 354 354 355 357 357 356 356 354 351 349 346 345 344 344 344 343 343 344 345 345 345 346 345 345 346 344 345 345 343 344 345 342 339 338 339 339 339 340 342 344 344 344 342 340 337 336 336 338 341 344 345 345 343 343 337 324 320 319 315 314 315 315 316 316 317 317 317 317 317 319 320
351 351 351 351 351 351 351 352 352 352 353 353 353 353 354 355 356 357 357 356 356 355 354 353 348 345 345 344 343 342 342 343 343 344 343 344 345 344 345 345 346 344 340 344 346 343 339 337 336 337 337 338 339 339 341 341 339 337 334 331 331 333 336 339 343 344 344 341 329 316 315 316 315 315 316 316 317 318 318 319 319 320 321 323 325
351 351 351 351 351 351 351 352 352 352 352 353 354 354 355 356 356 357 357 356 356 355 355 354 349 344 345 345 343 342 342 340 340 343 342 341 343 344 344 345 346 345 341 342 342 338 340 339 335 335 336 337 338 338 338 338 338 337 335 332 328 327 328 330 335 340 341 333 321 316 318 318 317 317 317 318 318 319 320 322 322 324 325 326 327
351 352 351 351 351 351 351 351 352 352 352 352 353 354 355 356 356 356 358 357 356 356 356 355 352 346 344 343 342 343 344 342 341 343 343 341 340 342 343 344 345 345 342 342 342 339 339 338 336 336 336 335 337 338 338 338 337 336 337 335 328 324 323 322 324 331 332 323 317 319 320 320 320 319 319 320 320 322 323 324 324 326 327 327 328
351 351 351 351 351 351 351 351 351 352 352 352 352 355 356 356 355 355 357 357 357 357 356 356 354 350 348 345 344 345 345 344 343 343 344 344 342 341 341 342 343 344 343 344 346 345 341 337 337 337 337 336 336 336 338 338 335 332 330 329 325 321 319 317 320 324 324 319 318 321 321 321 321 320 320 321 322 323 324 325 326 327 328 328 328
350 351 350 351 351 351 351 351 351 351 351 351 352 354 355 354 353 354 355 356 356 358 357 356 354 351 350 350 349 348 347 346 344 343 344 345 344 342 341 340 340 341 343 344 346 346 343 339 337 337 337 336 334 335 336 336 333 328 322 320 319 319 317 317 319 321 320 319 320 322 321 321 321 321 322 322 323 324 325 326 327 327 328 328 328
350 350 350 350 351 351 352 351 351 349 348 350 352 352 352 353 353 353 354 356 357 357 358 358 356 353 351 351 350 349 348 347 345 344 344 344 344 343 342 341 340 341 339 339 342 344 343 340 338 337 337 336 334 334 335 334 332 330 324 319 318 318 319 319 320 320 320 321 321 322 321 321 322 322 322 323 323 325 325 326 327 327 328 327 327
350 350 350 350 351 351 352 351 351 350 348 348 349 348 350 352 352 353 354 356 357 357 357 359 358 356 354 352 352 350 349 348 345 344 344 344 343 341 340 340 340 343 341 337 338 340 340 340 338 338 338 336 335 335 335 334 333 332 330 325 322 320 321 321 321 321 321 322 323 322 322 322 322 323 323 324 324 325 326 326 327 327 328 327 327
350 350 350 350 350 350 351 351 352 351 349 347 346 348 352 352 351 352 354 354 357 357 358 359 359 358 356 354 353 351 349 348 346 346 345 344 344 342 340 341 340 342 342 337 336 337 337 337 337 338 338 336 336 335 335 335 334 334 333 331 328 325 323 322 322 322 322 323 324 323 323 323 323 323 324 324 325 325 325 326 327 327 328 328 327
350 351 350 350 350 350 350 351 351 351 351 348 347 348 352 353 351 351 352 353 355 356 357 359 359 358 356 354 353 350 349 349 347 346 346 345 345 344 342 343 342 343 342 338 337 337 336 336 337 336 336 336 336 335 335 336 335 335 334 334 332 330 327 324 323 323 323 324 325 325 324 324 324 324 325 325 325 325 326 326 327 328 328 328 328
350 351 351 350 349 350 350 350 350 351 350 350 349 348 349 351 350 349 351 352 354 356 356 358 358 358 357 355 353 351 350 349 348 347 347 347 346 345 343 344 342 343 343 340 339 339 337 336 336 336 336 336 336 336 335 336 336 336 335 335 335 334 332 329 327 326 325 325 325 326 326 325 326 326 326 326 326 326 327 327 328 328 329 329 329
349 348 349 350 349 350 350 350 350 349 350 349 350 349 348 349 349 349 350 350 352 356 357 357 359 358 357 356 355 353 351 351 350 349 349 347 346 345 345 345 343 343 345 343 341 340 340 339 337 336 337 337 336 337 337 336 336 336 336 335 335 335 335 333 331 330 329 328 327 327 327 327 327 327 327 327 327 327 328 328 328 328 329 329 329
347 346 347 349 349 349 349 349 349 349 349 349 349 350 350 350 349 349 351 350 350 356 358 357 358 358 357 357 356 355 354 354 352 351 350 348 347 346 345 345 345 344 346 347 345 343 343 342 339 337 337 338 338 338 337 337 337 336 336 336 336 336 336 335 334 333 333 331 330 329 329 329 329 329 328 328 328 328 328 328 329 328 329 329 328
347 346 347 348 349 349 349 349 349 348 349 349 349 350 350 351 350 350 352 351 349 353 358 358 358 358 358 357 357 356 356 355 355 353 352 350 347 346 346 345 346 346 346 347 348 347 345 343 341 340 338 338 339 338 338 338 337 337 337 336 336 336 336 336 336 335 335 334 333 331 332 332 332 331 331 330 330 329 329 329 329 329 329 329 328
347 348 348 349 349 349 349 349 349 348 348 348 349 350 350 351 352 352 354 352 348 350 356 358 358 358 358 358 358 357 357 357 357 355 353 351 347 345 344 344 346 347 346 346 348 348 346 343 343 343 340 338 339 338 338 338 338 338 337 337 337 337 337 337 336 336 336 336 335 334 334 333 334 334 334 333 332 331 330 330 330 330 330 330 329
349 349 349 350 349 349 350 349 349 349 348 349 349 350 350 351 352 353 353 351 349 350 353 355 357 357 358 358 358 358 358 358 357 356 355 352 348 346 343 343 344 345 347 347 347 347 347 344 343 343 340 339 339 339 339 339 338 338 338 337 337 337 337 337 337 337 336 336 336 336 336 335 335 335 335 335 335 334 333 332 331 332 331 332 331
349 349 350 350 350 350 350 349 350 349 349 349 349 350 350 350 352 354 354 352 350 351 352 353 355 356 356 357 358 358 358 358 357 357 357 354 352 349 345 343 342 344 346 348 347 347 347 345 345 344 341 340 340 339 340 340 339 339 339 338 338 337 338 338 337 337 337 337 337 337 337 336 336 336 335 336 335 335 335 334 333 333 332 333 333
350 350 350 350 350 350 350 350 350 350 349 350 350 350 350 351 352 354 357 355 351 350 352 353 354 353 353 355 356 356 357 358 358 357 357 356 355 353 350 347 343 343 345 347 348 348 347 346 344 345 343 341 340 340 340 341 341 341 340 340 339 338 338 338 338 338 338 338 338 338 337 337 337 337 336 336 336 336 336 336 335 334 334 334 334
350 350 350 350 350 349 349 350 351 350 349 349 350 351 350 351 351 353 355 356 354 352 351 352 352 351 351 353 354 354 355 356 357 357 357 357 356 355 354 351 347 345 345 346 348 348 348 347 344 342 341 340 340 339 340 341 342 342 342 342 340 339 339 339 339 339 338 338 338 338 338 338 337 337 337 337 337 336 336 336 336 336 335 334 335
350 350 350 350 350 350 350 350 349 348 348 348 349 350 350 350 351 352 353 354 355 355 352 351 351 351 351 352 353 354 355 354 355 357 357 356 355 354 354 353 351 348 346 346 348 348 348 348 346 344 341 341 340 339 340 341 342 343 343 343 342 341 340 340 340 340 340 339 338 338 338 338 338 338 337 337 337 337 336 336 337 337 336 335 335
351 350 350 350 350 349 349 349 348 348 348 348 348 349 349 349 350 352 353 353 354 355 354 352 352 353 353 353 352 355 358 356 355 356 357 356 355 354 354 353 352 351 349 347 347 348 349 348 348 347 346 345 343 341 341 341 341 342 342 343 343 342 341 341 341 341 341 342 341 340 339 338 338 339 338 337 336 336 337 336 337 337 337 336 336
352 351 350 350 350 350 349 349 349 348 348 349 349 349 349 349 350 350 351 352 352 353 353 353 353 355 355 354 353 355 358 357 356 356 357 356 355 355 354 354 353 352 351 350 348 348 349 349 349 348 347 346 344 343 343 342 341 341 341 341 342 342 342 342 342 341 342 342 342 342 341 340 339 339 339 339 337 336 336 336 336 336 337 337 336
353 352 351 350 350 350 350 349 349 348 348 349 349 350 350 350 350 350 351 351 351 351 352 352 353 354 355 355 354 356 358 358 357 357 357 356 355 355 355 354 354 353 352 351 350 349 349 350 350 349 348 347 345 344 344 343 343 343 343 343 342 342 342 342 342 342 342 342 342 341 342 341 341 339 339 339 338 337 336 336 336 336 336 337 337
353 353 352 351 351 350 350 349 349 348 348 349 350 350 351 351 351 351 352 351 351 351 351 352 353 354 355 354 354 355 357 357 357 357 357 357 357 356 355 354 354 353 353 352 351 350 350 350 350 350 350 349 348 347 345 345 345 345 346 346 345 344 343 342 342 342 342 342 341 341 340 340 340 340 339 339 338 338 337 336 336 336 336 337 338
354 354 353 353 352 350 350 350 349 349 348 349 350 350 351 352 351 351 352 353 353 352 352 352 354 356 355 354 354 355 355 354 355 356 357 358 357 356 355 355 354 354 354 353 353 352 352 351 351 351 351 350 350 349 348 346 345 345 345 346 347 347 346 345 343 342 342 342 342 342 341 341 340 340 339 339 338 338 337 336 336 336 336 336 337
354 354 354 354 353 352 351 350 350 350 349 349 350 350 350 351 352 352 352 353 354 355 354 353 354 355 355 356 356 355 354 353 352 354 355 356 357 357 356 356 356 355 354 354 354 353 353 352 352 352 352 352 351 351 350 348 347 347 346 347 347 348 348 348 345 343 343 342 342 343 343 342 341 341 340 340 339 337 337 336 337 336 335 336 337
354 354 354 354 354 354 353 352 352 352 352 352 351 351 350 351 352 353 354 354 354 354 354 354 354 354 354 356 356 355 353 351 351 351 352 354 356 357 357 357 357 357 356 355 355 355 354 354 354 353 353 354 353 353 353 352 351 350 349 349 349 348 347 347 346 344 344 343 343 343 343 343 342 342 342 342 342 340 338 337 337 337 337 336 336
354 354 354 355 355 355 354 354 354 354 354 353 351 350 350 351 352 354 355 354 353 353 354 354 354 355 355 356 356 354 351 349 348 349 350 352 353 354 355 356 357 357 357 356 356 355 355 355 355 355 355 355 355 354 354 353 352 352 351 351 351 349 349 348 347 345 345 345 344 343 343 343 343 343 342 343 344 344 341 340 338 337 337 336 337
354 354 355 355 354 355 355 355 355 355 355 353 351 349 349 349 352 354 356 355 353 354 355 355 355 356 357 357 356 354 351 348 347 348 348 350 352 353 354 354 355 356 356 356 356 356 356 355 355 355 355 355 355 355 354 353 353 352 352 351 351 350 348 348 346 345 346 346 344 343 343 343 342 342 342 343 344 344 343 342 342 340 338 336 337
354 354 355 355 354 355 355 355 355 356 355 353 350 349 349 349 350 352 355 357 357 356 357 357 357 357 358 358 357 357 354 351 350 350 350 350 351 352 353 354 354 355 355 356 356 355 356 356 356 356 356 356 356 356 355 355 354 353 353 352 350 348 346 345 344 344 346 346 343 342 343 342 342 342 342 343 343 343 342 343 344 344 341 339 337
355 355 354 355 355 355 355 356 356 356 356 354 352 350 349 349 350 351 353 356 357 358 358 358 358 358 358 358 358 358 356 354 352 352 352 353 353 353 353 354 354 355 355 355 355 355 355 356 356 356 356 357 357 357 356 355 355 355 353 351 349 346 345 344 343 344 345 345 343 342 342 342 342 341 342 343 343 343 343 344 344 344 343 341 339
356 355 355 355 355 356 355 356 356 356 356 355 353 351 350 350 350 351 352 354 357 358 358 358 358 358 357 358 358 358 357 356 354 353 354 354 355 356 357 356 356 355 355 355 355 355 355 355 355 355 356 356 357 357 356 355 355 355 353 350 348 347 346 346 345 346 346 345 342 342 342 342 342 342 342 343 343 342 343 343 343 343 343 342 341
356 356 355 355 356 356 355 355 356 356 356 354 353 352 351 350 351 351 352 353 355 357 358 358 358 357 357 358 358 357 358 358 356 355 355 356 357 359 359 359 359 358 357 357 356 356 355 355 355 355 355 355 355 355 355 355 355 354 352 351 349 347 346 346 345 345 345 345 343 342 342 343 342 342 342 342 342 342 342 342 342 342 343 343 342
356 356 356 356 356 356 356 355 355 356 355 354 353 352 351 351 351 352 352 352 354 356 357 357 357 357 357 357 358 358 359 359 357 354 354 355 357 359 359 359 360 359 359 359 357 357 356 356 355 355 355 355 355 355 355 355 354 352 349 348 347 346 345 345 345 344 343 343 343 342 342 343 342 342 343 343 343 343 343 343 343 342 342 342 342
357 357 357 356 356 356 356 356 356 356 355 354 353 352 352 351 351 351 352 352 353 354 356 356 357 357 356 356 357 358 359 358 356 354 354 355 356 357 358 359 359 359 359 359 358 358 357 357 356 356 356 356 356 356 355 355 355 353 346 343 344 344 344 344 343 343 343 343 342 342 342 343 343 343 343 343 343 344 344 344 343 343 342 342 342
357 357 357 357 357 357 357 356 356 356 356 355 354 353 352 352 351 351 351 352 353 354 355 355 356 356 356 355 355 356 358 357 355 353 354 355 356 356 357 358 359 359 358 359 359 359 359 358 358 358 357 357 356 357 357 355 356 354 347 342 342 341 341 342 341 342 343 344 344 343 343 343 344 344 345 345 345 345 345 344 344 343 343 342 341
357 357 358 357 357 358 357 357 356 356 356 356 355 354 353 352 352 351 351 352 353 355 355 355 356 356 356 355 354 354 354 354 353 353 354 354 355 356 357 358 358 358 359 359 359 360 359 359 360 359 359 358 357 357 356 355 356 355 351 348 346 342 340 341 341 341 343 344 344 343 343 343 345 346 347 347 346 346 346 346 345 344 343 343 342
Wind_Speed
6 5 5 5 4 4 4 3 3 3 3 3 3 4 4 4 4 3 3 4 4 4 4 4 4 5 4 3 3 2 1 1 1 2 1 1 3 4 5 5 4 4 4 4 4 3 2 1 1 1 2 2 2 3 3 3 3 3 3 3 2 2 1 1 0 1 1 2 2 3 4 4 5 5 5 6 6 7 8 9 9 9 9 10 10
5 5 5 4 4 4 3 3 2 2 2 2 4 4 3 3 3 3 2 3 3 3 3 4 3 5 6 5 3 2 2 1 0 1 0 1 3 4 5 5 4 4 4 3 4 4 3 3 2 2 2 2 2 2 2 2 2 2 2 1 1 0 0 1 1 1 2 3 3 4 4 4 5 5 6 6 7 7 8 8 8 8 9 9 10
5 5 4 3 3 3 3 3 2 2 2 2 3 4 3 3 3 3 2 2 1 2 2 2 3 5 7 7 4 2 3 2 1 1 1 1 2 4 4 4 4 4 4 4 5 4 4 4 3 3 3 2 2 1 1 1 1 1 0 0 0 1 1 2 2 2 3 4 4 4 5 5 6 6 7 8 8 8 8 8 8 8 9 10 10
5 5 4 3 3 3 3 3 2 2 2 2 3 2 2 2 2 2 2 2 1 1 1 1 2 4 6 6 6 2 2 2 2 1 1 0 1 3 4 4 4 5 5 5 5 4 4 4 4 4 4 4 3 3 3 2 2 2 2 2 2 2 3 3 3 3 3 4 5 6 6 7 7 7 8 8 8 8 8 8 8 8 9 10 11
5 4 4 3 2 2 2 2 2 2 2 2 2 2 1 1 1 2 2 2 1 1 1 1 1 3 4 5 7 5 2 2 2 2 1 0 1 2 4 4 4 4 5 5 5 4 5 5 5 5 5 5 4 3 4 4 3 3 3 4 3 3 4 4 5 5 5 5 6 7 7 7 8 8 8 8 8 9 8 8 8 9 10 10 11
5 4 4 3 2 2 2 2 2 3 3 2 2 1 1 0 1 1 2 2 1 1 1 1 1 2 4 5 7 6 2 2 2 1 0 1 1 1 3 4 3 4 4 5 5 5 6 6 5 5 5 5 4 4 4 4 4 4 5 5 5 5 5 6 7 7 7 7 7 8 8 8 8 8 8 8 8 8 8 8 9 10 10 10 10
6 5 4 4 4 3 3 2 2 3 2 2 2 1 1 0 1 2 2 2 2 2 1 1 1 2 4 6 7 7 3 1 2 1 1 2 3 2 2 3 4 4 4 4 4 5 7 7 5 5 5 5 4 4 3 4 4 5 5 5 5 5 5 7 8 7 7 7 7 8 8 7 8 8 8 8 8 8 8 9 10 10 10 10 9
7 6 5 5 5 4 4 3 3 2 2 2 2 1 1 0 1 2 2 2 2 2 1 1 1 2 4 6 7 6 2 2 1 0 1 3 3 3 2 2 3 4 4 4 4 5 6 7 6 6 6 5 4 4 4 5 5 5 5 5 5 6 6 6 7 7 7 7 7 7 7 7 7 8 8 8 8 8 8 9 9 9 9 8 8
8 7 6 5 5 5 4 4 3 3 2 2 1 1 1 1 2 2 2 3 3 3 1 1 1 1 3 6 7 4 1 2 1 0 2 3 3 3 3 3 3 3 3 4 4 4 6 7 7 6 6 5 5 4 4 5 5 5 6 5 5 6 6 6 7 7 7 6 6 6 6 6 7 8 8 8 7 7 8 8 8 7 7 7 8
9 8 6 5 5 5 5 5 5 4 3 3 2 2 1 1 2 3 3 3 4 3 2 1 1 1 2 5 5 2 2 2 1 1 2 3 3 3 3 3 3 3 3 4 4 4 4 6 6 5 5 6 5 4 5 5 5 5 5 5 6 6 6 6 6 6 6 6 6 6 6 6 7 7 7 7 6 6 7 7 6 5 5 6 7
10 9 7 5 5 6 7 6 6 5 4 4 3 3 3 2 2 3 3 4 3 2 2 1 1 1 3 4 2 2 3 2 1 1 2 2 4 3 3 3 3 3 3 3 3 4 4 4 4 4 4 6 6 5 5 5 5 5 5 5 5 6 5 5 5 5 5 5 5 6 6 6 7 7 7 6 5 6 6 5 4 3 4 5 6
12 10 8 6 6 7 7 7 7 6 5 5 3 3 3 3 3 3 3 3 2 1 1 2 2 1 1 1 1 3 2 2 2 1 2 3 4 3 3 3 3 3 3 3 3 4 4 3 3 3 4 5 6 6 5 5 5 6 6 6 6 6 5 5 5 5 5 5 5 6 6 6 6 6 6 5 5 5 4 4 4 4 4 5 5
13 12 9 8 7 8 7 7 8 7 6 6 5 4 4 4 4 3 2 2 2 0 1 2 2 2 1 2 3 2 2 3 2 1 2 2 3 4 4 3 3 4 4 4 3 3 4 4 4 4 3 4 4 5 6 6 6 6 6 6 6 6 6 5 5 5 5 5 5 5 5 4 4 4 4 4 3 3 4 5 6 6 6 5 5
14 12 11 9 9 9 9 8 8 8 7 7 6 5 4 5 4 3 2 2 1 0 2 2 2 2 1 2 2 2 2 2 2 2 3 3 3 4 5 4 3 4 5 5 4 4 4 4 4 4 4 4 4 4 5 5 5 6 6 6 6 6 5 5 6 6 5 4 4 4 4 4 3 3 2 2 3 4 5 5 6 6 5 5 5
14 13 12 11 10 10 11 10 9 9 8 8 7 6 6 5 5 3 2 2 1 1 3 3 2 1 1 1 1 1 2 2 3 4 4 5 5 5 5 5 4 5 6 5 4 5 5 5 4 4 4 4 4 4 4 4 4 5 5 6 6 6 6 5 5 5 4 4 4 3 3 2 2 1 1 2 3 4 4 5 5 5 5 5 5
14 14 14 13 13 12 12 12 11 10 9 9 9 8 7 6 5 4 3 3 2 2 3 3 3 3 1 1 1 1 2 2 3 4 5 6 6 6 6 6 5 7 7 5 5 6 6 6 6 4 4 4 5 4 4 4 5 5 5 5 6 6 6 6 6 5 4 3 3 2 1 1 0 0 1 2 2 3 3 4 4 4 4 4 4
14 14 14 14 14 13 14 14 13 12 11 10 10 9 8 7 6 6 5 4 3 2 2 4 5 4 2 1 0 1 1 0 2 3 4 6 7 6 8 8 7 8 9 7 7 8 7 7 7 6 5 5 5 5 5 5 5 6 6 6 6 5 5 5 5 5 3 2 2 1 1 1 0 0 1 1 2 2 2 3 3 3 3 3 3
14 14 14 15 15 14 14 15 15 15 13 12 11 10 9 7 7 6 5 5 4 3 3 3 5 6 4 2 1 1 1 1 2 1 2 5 6 6 7 8 8 9 11 10 9 9 8 8 8 8 7 6 6 6 6 6 6 6 7 7 6 5 4 4 4 4 3 2 2 1 1 1 1 1 1 2 2 2 2 2 2 2 2 2 2
16 16 15 15 15 15 15 15 16 16 15 14 13 10 8 8 7 7 6 6 5 4 3 3 5 6 6 5 3 1 1 2 2 2 3 2 3 5 6 7 8 9 11 10 9 10 10 10 9 8 8 8 7 7 7 7 6 7 7 7 7 6 5 4 3 3 3 3 3 2 2 2 2 2 2 3 2 2 2 2 1 1 1 1 2
18 18 17 16 16 16 16 15 16 16 17 16 15 12 10 9 8 7 8 7 6 5 4 4 5 6 6 6 6 5 5 3 3 3 4 3 4 4 4 6 8 9 10 10 9 10 12 12 10 10 10 9 8 8 8 7 7 6 6 6 6 6 5 4 4 4 4 4 4 4 4 3 3 3 3 3 3 3 3 2 2 1 2 3 3
20 20 19 18 17 17 17 16 16 16 16 16 16 15 13 11 9 9 8 8 7 6 5 5 5 5 5 6 5 5 5 4 4 5 4 4 5 5 4 5 7 7 9 10 9 11 12 13 12 11 11 10 9 8 8 8 7 6 6 6 6 6 5 5 5 5 6 5 5 5 5 4 4 4 5 5 4 4 4 3 3 3 4 4 4
21 22 21 20 18 18 18 18 17 16 15 15 16 17 15 13 11 10 9 8 8 8 7 6 6 6 6 6 5 5 4 4 4 5 4 4 5 6 7 6 6 6 8 9 9 10 12 13 13 13 13 12 10 10 9 9 8 7 6 7 7 6 6 7 7 7 7 7 6 6 6 6 6 6 7 6 6 6 6 5 5 5 5 5 5
23 23 23 22 21 19 19 19 19 18 17 16 16 16 15 14 13 11 10 9 9 8 8 8 8 8 8 7 7 7 6 6 5 4 4 4 4 7 7 7 8 7 8 10 10 10 11 12 13 14 14 13 12 12 11 10 9 8 8 7 7 8 8 8 8 8 8 8 8 8 8 8 8 8 8 8 8 8 8 8 7 7 6 6 6
24 24 24 24 23 21 20 20 20 20 18 17 16 15 14 14 14 13 11 10 9 9 9 9 9 9 9 8 8 8 8 7 7 5 5 6 6 7 8 7 7 7 7 10 10 10 11 12 12 14 14 14 14 14 13 12 11 10 9 9 9 9 9 9 9 9 10 10 10 10 10 10 10 10 10 10 10 10 10 10 9 9 8 7 7
26 26 25 25 25 23 21 21 20 20 19 18 16 15 15 15 15 15 13 12 11 10 10 10 10 9 9 8 8 9 8 7 7 6 6 6 6 8 8 7 7 7 7 9 9 9 11 12 12 12 13 14 14 15 14 14 13 12 11 11 11 10 10 10 10 11 11 11 12 12 12 12 12 13 12 12 13 13 13 12 12 11 10 10 9
27 27 26 26 26 25 23 21 21 20 19 18 17 16 15 15 15 15 14 13 12 10 10 10 10 10 9 9 9 9 9 8 7 7 8 8 7 8 8 7 8 9 7 7 8 8 9 10 12 12 12 13 13 14 14 15 15 14 13 13 14 12 12 11 11 12 12 13 14 14 14 14 14 15 15 15 15 15 15 15 15 14 13 13 12
28 27 27 26 26 26 24 23 21 20 19 18 18 17 16 15 15 15 14 14 13 12 11 10 10 11 11 11 11 10 9 9 8 8 9 9 9 8 8 7 7 8 7 6 7 9 8 10 12 10 9 10 11 12 13 14 15 15 14 15 16 16 14 14 13 13 13 14 15 15 16 16 16 16 17 17 18 18 18 18 18 17 16 16 15
28 28 27 26 25 25 25 24 22 21 20 19 19 18 17 15 15 15 13 14 15 14 12 11 11 12 12 13 13 11 11 10 9 9 10 10 10 10 8 7 6 6 7 6 6 7 6 7 8 7 6 5 5 7 9 11 14 15 16 17 19 18 17 16 16 16 16 16 16 17 18 18 18 18 19 19 20 20 20 20 20 20 19 18 17
28 28 27 27 26 25 25 24 23 22 21 20 20 19 18 17 16 15 13 14 16 15 14 13 12 12 11 12 13 13 12 12 12 12 12 12 12 11 10 9 7 5 6 6 6 7 6 5 6 6 5 4 4 5 7 9 11 13 15 17 19 20 19 19 19 19 19 19 19 20 21 21 21 21 21 21 21 21 21 21 21 21 20 20 19
28 28 28 27 26 26 25 25 24 23 22 21 21 20 19 19 17 16 15 15 16 16 16 15 14 13 13 12 13 14 13 14 13 13 13 12 12 12 11 11 10 8 7 6 8 9 8 7 6 5 6 8 9 12 12 12 11 11 14 16 18 19 19 19 20 21 22 23 23 23 24 24 24 24 23 23 23 23 22 22 22 22 22 21 21
29 28 28 27 27 27 26 26 25 25 24 23 22 22 21 20 19 16 15 15 16 16 16 16 16 15 15 14 14 15 15 14 14 13 14 13 13 13 13 13 13 11 10 8 8 10 9 7 7 8 12 16 18 18 17 16 15 13 14 15 17 17 18 20 21 22 23 24 25 26 27 27 27 27 26 25 25 25 24 24 23 23 23 23 22
30 29 28 28 27 27 26 26 26 26 26 25 24 23 22 22 20 17 14 13 15 17 17 16 16 16 17 17 17 17 17 16 15 15 15 14 14 14 14 14 14 13 12 10 10 14 15 13 14 15 16 19 22 22 21 21 20 18 17 17 18 18 19 20 21 22 22 24 25 26 27 28 29 29 29 29 28 27 26 26 25 25 24 24 24
30 29 29 28 28 28 26 26 25 26 26 26 25 24 24 23 22 20 17 14 14 17 18 18 18 18 18 18 18 19 18 18 17 16 15 15 15 15 16 16 14 14 14 12 12 17 20 19 21 23 22 23 25 26 25 24 24 23 21 20 20 20 20 22 22 23 23 24 25 25 26 27 28 29 30 31 31 30 28 27 27 26 26 26 25
31 30 29 29 29 28 27 26 26 26 26 25 25 24 24 24 23 21 20 18 16 17 19 21 20 20 19 19 19 19 18 19 19 17 15 14 14 14 16 16 15 15 17 16 13 15 20 20 20 23 25 25 26 27 27 26 25 25 24 24 23 23 23 24 25 26 26 26 26 27 27 27 28 28 29 30 31 31 30 29 28 28 27 27 27
30 31 30 30 30 29 28 27 27 27 26 25 25 25 25 25 24 22 21 21 20 20 21 22 21 20 20 20 20 18 17 18 19 17 15 14 14 15 16 17 17 16 17 19 17 15 18 21 20 18 19 21 24 27 28 28 28 26 26 26 25 25 26 26 27 29 30 29 28 28 29 29 30 30 29 29 30 31 31 31 30 29 28 29 29
27 31 31 30 30 29 28 28 28 28 27 26 25 25 25 25 25 24 23 23 23 22 23 23 22 20 19 20 21 19 16 17 19 18 16 16 17 17 17 17 18 18 18 20 21 19 18 20 21 21 22 24 26 27 27 28 29 28 27 27 25 26 28 28 29 31 31 31 30 30 31 31 32 32 32 31 30 29 31 32 32 31 30 29 29
26 29 31 31 31 30 30 29 29 29 28 28 27 26 26 25 25 25 24 24 24 24 25 25 24 22 21 21 21 19 17 17 19 18 17 17 17 17 18 18 18 19 19 20 22 22 19 20 22 24 26 28 29 29 28 27 26 24 25 26 26 27 28 28 30 31 32 31 30 30 31 31 32 32 32 32 32 30 30 31 33 33 32 31 30
26 27 29 31 32 31 31 30 30 30 29 29 29 28 26 25 26 25 25 25 25 26 26 26 25 24 23 23 22 20 19 19 19 19 18 17 17 18 19 20 19 19 19 20 21 21 20 21 23 23 23 23 24 26 28 27 24 20 19 21 22 24 27 28 27 28 29 30 29 29 29 30 30 31 31 31 31 31 31 32 34 35 35 34 33
27 26 26 28 31 32 32 31 30 30 30 29 29 29 28 27 27 27 26 25 26 26 27 27 25 23 23 24 23 22 23 23 23 21 19 18 18 19 21 21 20 18 17 17 18 18 19 20 20 21 21 20 19 20 23 24 23 21 20 19 17 18 22 24 24 25 26 27 28 28 27 28 28 28 29 29 30 31 33 34 36 37 38 37 36
28 27 26 26 29 31 31 31 31 30 30 30 30 30 30 29 28 28 27 26 25 25 27 27 26 25 24 23 23 23 24 25 25 24 22 21 19 19 21 21 19 18 17 15 15 16 17 18 19 19 19 18 18 18 18 18 18 20 21 20 17 17 17 18 21 26 28 28 28 26 24 25 25 24 25 26 27 29 33 36 38 40 40 40 39
28 27 26 25 25 27 29 30 30 29 29 30 30 31 31 30 29 27 26 27 27 26 26 26 26 27 26 24 24 24 25 26 26 25 25 24 22 22 22 20 17 17 18 16 16 17 17 18 19 18 17 17 16 16 15 14 15 19 21 18 16 15 14 14 19 25 29 29 28 26 24 25 25 24 24 26 27 28 30 34 39 41 41 41 41
28 27 27 25 24 25 26 28 28 28 28 30 32 32 31 30 29 26 25 27 29 28 27 27 27 27 26 25 25 26 27 28 28 27 27 27 26 26 26 23 20 18 18 18 19 19 20 21 20 18 18 18 17 16 16 16 17 19 18 15 14 12 10 11 17 25 29 28 26 27 29 28 26 27 28 30 32 31 31 33 35 38 40 41 42
30 29 27 26 25 25 24 25 26 26 28 31 33 33 32 31 29 26 25 27 28 28 27 27 28 26 24 24 25 27 28 29 29 29 28 28 28 28 28 28 27 25 23 22 21 21 22 23 23 21 21 22 21 18 17 19 18 17 15 14 11 7 7 10 16 25 32 30 25 27 33 32 27 29 34 36 37 36 36 34 33 34 36 38 41
31 30 28 27 28 27 24 23 24 25 28 31 33 33 33 32 31 29 26 24 24 25 25 26 26 24 23 23 23 24 27 28 28 27 28 29 28 28 28 29 29 29 29 28 26 25 24 24 26 25 24 26 25 20 18 21 20 16 13 11 7 5 7 11 18 29 39 33 22 25 37 35 26 28 38 40 40 40 39 38 36 35 36 36 37
29 30 29 28 28 28 26 25 25 25 26 29 33 34 33 32 31 31 29 25 22 23 23 24 24 24 24 24 23 24 27 28 28 28 28 29 29 29 29 30 30 31 31 31 30 30 30 28 28 29 27 27 26 23 24 27 26 19 11 6 7 7 10 17 25 34 41 33 20 23 38 38 27 27 38 42 42 41 41 41 40 38 39 38 36
27 28 29 28 28 28 28 27 26 25 25 28 32 34 33 33 32 31 31 28 25 23 24 24 24 25 26 25 25 26 26 26 28 29 28 28 28 27 26 26 28 29 30 32 32 32 33 33 34 35 34 34 32 33 34 34 34 28 16 12 16 15 18 25 29 35 41 35 24 23 34 40 31 27 39 44 42 42 41 40 41 40 39 39 36
27 29 30 29 28 28 29 28 26 26 28 30 32 33 33 33 32 31 32 31 29 26 25 26 27 27 27 26 27 28 26 25 28 29 27 27 25 22 21 22 23 24 25 28 30 32 33 34 35 37 38 39 39 38 35 32 33 27 17 19 22 15 19 31 32 33 40 38 29 23 30 41 37 30 41 45 36 37 40 38 40 42 40 38 37
25 27 29 29 28 28 30 30 27 27 29 31 33 35 34 33 32 31 32 33 32 30 28 28 29 29 29 28 28 28 26 27 30 30 29 28 25 22 21 22 22 22 22 24 27 30 32 33 34 35 36 37 37 36 34 32 33 29 23 23 17 8 16 29 28 30 36 35 31 27 29 39 40 31 38 42 32 30 35 35 38 42 40 38 37
24 25 27 27 27 28 28 28 27 28 29 31 34 35 34 33 32 32 33 33 33 32 31 31 30 29 31 31 30 28 26 28 32 32 30 29 27 25 24 23 23 24 24 23 25 29 31 30 30 31 32 34 35 36 34 32 33 34 29 22 13 10 18 24 23 29 33 28 28 28 26 33 40 31 28 34 33 30 31 32 37 41 40 38 37
26 26 26 26 26 26 26 27 28 30 29 30 33 35 34 33 33 33 34 33 32 32 32 32 32 32 32 33 32 30 29 30 32 32 30 29 28 27 26 24 24 25 24 24 23 24 26 27 27 28 29 30 31 34 35 32 33 34 26 17 14 17 22 24 25 31 33 28 29 30 26 31 41 36 25 24 28 29 29 30 32 35 35 35 36
27 25 25 25 25 25 25 27 30 31 29 27 31 34 34 34 33 33 34 32 30 30 30 30 30 30 32 33 33 34 34 34 33 32 31 30 29 29 26 23 24 25 24 23 23 23 24 24 24 25 25 27 30 33 35 33 31 30 24 18 16 18 23 27 29 27 23 23 26 27 26 30 36 34 26 20 18 22 24 23 24 28 28 26 29
Wind_Direction
158 151 147 145 151 157 149 144 142 138 133 124 130 123 109 98 87 80 75 68 58 48 37 29 18 10 360 330 303 298 326 21 48 46 101 169 184 199 207 205 199 199 190 173 187 187 175 179 142 129 126 117 109 108 109 105 104 105 105 109 109 106 96 83 59 357 336 343 347 341 343 344 339 338 336 335 336 333 333 338 341 345 351 352 352
168 159 150 147 155 161 159 159 158 149 140 137 142 132 115 101 85 78 72 69 60 42 28 25 16 3 0 350 312 259 270 275 293 52 116 166 190 205 215 217 209 210 207 187 198 196 192 211 196 192 192 159 147 129 123 117 110 111 115 122 119 116 307 330 321 317 320 328 333 327 324 323 326 326 324 328 332 333 336 340 342 345 346 348 348
183 174 168 169 168 171 181 181 183 175 154 144 147 136 123 108 93 87 78 80 56 23 18 15 6 357 360 2 353 268 245 256 243 189 147 154 200 209 222 231 220 221 220 203 209 208 205 215 215 222 221 204 194 181 170 158 142 141 139 186 229 279 296 312 313 310 310 315 316 312 315 315 316 318 320 326 328 331 336 340 342 341 343 347 348
190 189 192 196 191 192 198 195 195 189 170 163 169 159 142 126 104 92 79 81 46 7 2 358 352 353 1 8 7 344 246 240 210 193 182 132 227 212 221 234 232 238 233 217 218 223 222 220 223 231 231 227 220 212 214 212 207 214 234 246 261 283 291 296 290 286 290 297 300 302 310 314 315 318 320 323 325 329 334 338 339 339 344 348 347
198 199 206 214 212 209 216 206 195 192 190 187 188 185 165 148 86 66 55 53 36 5 325 302 318 343 350 359 6 1 283 235 205 209 213 94 317 232 227 231 235 246 244 233 227 233 243 237 233 238 240 241 239 236 240 243 242 239 246 251 259 272 280 285 286 290 293 294 295 297 305 312 318 324 324 324 330 333 336 339 340 342 346 345 344
208 210 220 233 240 234 232 224 201 195 205 204 193 193 178 150 18 19 26 30 21 1 330 266 276 330 337 340 356 3 339 222 208 226 309 307 320 281 233 238 245 252 257 258 253 247 249 246 245 252 254 253 254 257 259 265 271 268 264 261 263 273 281 285 287 294 299 298 298 299 305 312 319 326 328 327 331 333 334 336 339 342 342 342 345
217 222 233 246 255 252 240 228 211 201 213 218 209 204 190 141 6 5 14 22 16 359 333 264 263 310 327 330 348 4 5 229 234 251 324 329 331 325 255 241 247 257 261 265 267 261 259 257 257 261 261 262 262 263 268 274 280 281 276 271 271 278 286 288 289 295 300 303 306 307 310 314 319 326 328 329 330 329 330 333 337 340 340 343 348
224 230 242 252 254 252 241 226 216 209 218 227 227 222 210 9 10 11 9 13 16 359 328 249 240 295 320 328 345 357 349 244 267 260 324 335 340 335 322 276 253 255 256 260 265 267 272 270 266 266 267 271 274 273 275 283 287 284 282 281 279 283 288 288 291 296 300 305 310 312 312 316 322 325 329 331 329 326 328 333 336 338 342 350 358
230 235 244 255 255 250 240 227 221 220 227 241 247 249 278 335 351 9 8 2 4 357 349 218 222 292 311 322 334 334 256 224 248 269 330 338 346 341 332 310 293 279 260 265 273 275 282 280 275 274 272 276 278 273 275 284 288 284 284 285 286 288 291 292 294 301 305 306 309 314 316 320 323 327 332 332 328 326 329 333 335 339 349 0 5
234 238 244 255 256 244 235 225 221 222 227 242 254 261 279 312 342 359 352 349 354 349 343 226 199 206 271 311 321 272 190 188 231 306 343 340 344 343 330 310 301 293 277 278 278 272 277 282 284 280 278 281 281 278 278 279 281 286 287 285 287 288 289 294 299 306 309 309 311 316 318 320 322 323 323 321 320 321 322 327 332 341 355 3 4
234 236 241 252 254 239 230 222 219 223 227 238 253 261 273 297 331 341 333 339 346 336 327 249 181 189 247 302 320 177 162 163 197 327 340 333 338 342 327 305 294 290 293 295 288 282 277 275 275 269 270 278 277 277 281 283 281 284 284 284 288 289 290 296 301 307 311 312 309 307 308 309 310 309 305 299 302 312 318 328 339 352 9 14 18
235 235 237 244 248 238 230 224 221 226 231 238 250 260 276 290 306 322 320 322 313 260 244 227 187 174 239 337 102 145 152 166 181 308 326 330 333 333 316 300 298 295 297 306 302 294 288 282 273 264 262 271 273 269 269 274 275 276 278 282 285 287 290 294 297 301 303 300 297 296 301 302 297 294 299 303 309 325 344 9 39 59 55 50 53
234 233 234 238 241 240 235 232 231 235 239 246 255 264 279 284 292 310 304 302 321 157 179 213 191 173 144 86 94 122 157 182 187 224 279 295 305 305 298 290 294 296 297 307 316 306 294 294 292 282 268 263 270 268 262 263 268 273 279 281 279 277 281 285 283 284 288 291 293 299 309 316 309 300 314 335 353 25 49 60 73 81 77 73 70
234 232 235 239 242 245 245 242 240 242 248 252 256 263 273 279 284 297 292 285 327 298 208 207 199 192 165 122 113 124 161 207 215 220 240 252 265 276 281 281 282 285 292 302 314 316 308 302 293 286 278 267 266 266 263 261 264 271 279 281 277 270 271 280 279 276 280 287 293 302 313 324 329 331 354 31 59 73 79 81 83 85 83 80 72
233 234 240 245 247 250 251 250 246 246 250 254 257 261 266 273 272 268 277 276 263 246 223 215 215 193 185 198 178 167 194 213 233 233 236 244 250 257 264 270 271 274 285 296 300 305 310 307 296 283 277 271 264 263 264 265 264 269 276 279 277 272 267 271 277 277 281 288 293 306 312 314 330 7 66 92 94 92 91 89 90 89 86 80 72
234 238 244 249 252 254 254 253 250 250 251 254 257 261 264 269 268 259 261 269 272 255 226 218 212 200 204 194 138 251 226 195 236 241 240 245 248 251 256 261 263 268 277 282 282 290 300 302 302 297 284 277 271 270 271 271 269 269 277 283 281 278 270 266 271 277 282 285 294 320 320 302 329 91 116 117 104 99 98 94 94 91 84 79 74
235 241 246 249 252 254 256 254 252 252 252 253 256 259 263 265 265 263 259 264 273 272 240 218 207 201 202 183 166 253 257 356 287 252 243 252 251 249 255 261 260 263 267 267 274 285 289 292 300 303 298 290 282 279 278 274 271 267 272 282 286 283 273 267 268 271 274 276 284 309 301 292 281 194 167 143 120 113 111 105 101 97 90 82 71
237 241 244 246 248 253 256 256 254 253 252 253 254 257 262 262 263 262 257 261 265 261 249 220 208 205 208 235 289 2 51 5 310 295 268 259 255 253 256 261 260 263 266 263 265 273 277 284 294 299 301 300 294 289 284 281 278 272 268 274 283 287 282 275 268 260 258 255 254 257 264 267 255 235 219 205 174 157 146 132 127 115 98 74 50
237 239 241 243 246 249 255 257 256 254 253 253 251 251 254 256 262 262 258 261 255 248 250 222 210 212 216 232 248 265 306 309 304 319 314 280 268 270 265 262 264 265 266 262 259 262 266 274 282 288 295 297 297 295 289 284 283 280 276 273 276 282 282 280 266 248 238 235 233 244 260 261 252 244 233 224 204 190 182 170 169 149 57 9 358
236 238 239 242 246 248 252 256 256 255 254 252 250 248 248 253 261 262 261 262 251 241 248 241 230 223 221 231 244 259 274 282 283 291 303 303 295 286 271 273 275 270 269 265 256 255 263 269 271 276 284 288 292 294 289 283 280 281 280 274 272 274 274 270 258 245 237 234 238 248 258 262 261 256 246 236 222 211 208 210 226 264 298 314 317
235 237 239 242 246 248 251 255 257 258 255 250 247 247 248 250 255 260 262 263 258 249 247 250 253 243 230 234 242 253 264 268 266 265 276 288 295 302 298 293 286 279 286 284 268 262 264 267 267 267 272 277 281 285 284 281 278 276 274 270 267 267 268 264 256 247 241 240 246 252 256 259 261 257 251 245 236 230 233 241 250 263 276 288 294
235 237 239 241 245 248 250 252 255 258 258 251 247 248 248 249 250 256 258 259 260 259 255 251 256 255 246 242 238 237 244 253 257 257 264 266 277 300 305 304 303 299 304 301 283 271 268 266 266 264 264 268 271 274 274 273 273 271 269 265 262 263 263 261 256 248 245 247 250 254 256 257 256 253 252 250 246 244 244 248 252 258 264 273 283
236 237 238 240 245 248 249 251 252 255 257 255 251 248 246 249 251 251 253 255 256 258 259 253 252 252 248 248 248 246 246 255 264 266 276 281 283 299 305 310 310 301 301 306 298 282 273 266 264 262 262 265 266 266 266 267 268 267 267 265 263 264 262 260 258 253 251 253 254 255 255 254 252 251 251 252 251 249 247 247 249 251 256 266 280
235 237 239 239 242 246 248 249 250 251 253 254 254 250 245 246 250 251 250 251 251 252 255 252 251 251 249 249 251 253 252 257 266 264 273 289 294 296 302 310 304 291 295 307 303 288 279 273 268 266 266 266 264 262 260 262 264 264 264 264 264 263 263 260 258 257 256 256 257 256 254 252 251 251 252 252 252 250 249 247 247 249 253 262 275
232 236 238 238 240 243 245 247 249 250 251 252 256 257 253 249 250 252 252 251 250 249 252 254 254 252 251 252 251 254 254 254 263 266 270 280 281 284 294 300 296 293 296 299 296 290 285 279 275 272 270 267 264 261 258 257 260 260 260 262 263 262 261 261 258 258 257 256 257 256 255 254 253 253 254 254 254 253 252 251 249 251 254 259 265
232 235 237 237 238 240 243 247 249 250 250 251 254 259 260 255 251 252 252 253 251 247 251 255 257 255 256 258 256 256 258 259 263 265 268 271 271 279 288 290 289 290 288 284 283 284 283 284 285 281 275 271 265 262 260 258 259 259 257 260 263 263 261 260 260 259 259 257 257 257 256 256 255 256 256 256 257 257 256 256 255 255 257 260 263
235 238 238 238 238 240 243 247 249 250 251 251 252 256 260 258 254 252 249 250 249 247 249 251 254 258 260 263 263 261 262 266 266 265 267 267 269 275 279 284 289 290 288 280 274 272 270 282 293 292 282 275 269 266 265 262 262 263 260 258 261 263 262 260 260 260 260 259 257 256 256 257 257 258 258 258 259 259 260 260 260 261 262 263 266
238 240 240 239 239 240 243 246 249 250 251 252 251 253 257 258 256 251 245 246 248 247 248 250 253 258 261 265 268 266 264 268 270 270 271 269 270 270 264 265 280 293 297 292 283 281 272 274 296 307 306 300 288 281 276 269 266 266 263 260 261 263 263 262 261 261 262 261 259 258 257 257 258 258 258 259 259 261 262 263 264 265 267 268 270
238 240 240 240 240 240 242 245 248 249 250 252 251 251 254 256 255 251 246 246 250 250 249 251 255 258 260 263 268 270 269 273 276 277 279 277 276 273 262 256 260 275 296 298 293 294 283 271 286 299 312 335 337 318 304 291 282 275 269 266 264 266 266 266 265 265 264 263 262 261 259 259 259 259 259 259 259 260 262 263 265 267 268 271 273
236 238 239 240 241 241 242 244 246 248 249 250 251 250 251 253 253 253 251 248 249 251 252 253 256 259 261 261 266 270 271 275 278 279 282 281 278 275 266 255 252 257 272 286 292 288 281 277 272 271 290 308 312 310 308 305 301 291 280 274 271 271 272 271 270 268 267 266 265 263 262 262 261 261 260 261 261 261 262 263 264 265 267 269 271
235 237 238 239 241 242 243 244 244 246 247 248 250 250 250 252 252 251 250 248 248 250 252 254 255 258 262 263 265 269 271 275 276 277 281 281 278 276 271 263 257 254 257 268 283 280 272 271 270 273 287 295 300 302 301 302 303 298 290 284 282 279 276 273 272 271 270 269 268 267 266 265 264 264 263 263 263 263 263 263 264 264 265 266 268
233 236 237 238 240 243 244 244 243 244 245 246 248 250 250 252 252 248 244 242 246 250 251 252 254 258 263 264 266 268 271 274 275 276 279 280 279 277 274 270 264 258 255 251 263 273 272 273 278 282 287 293 298 300 299 301 303 302 298 294 292 289 282 279 279 278 276 274 272 271 270 269 268 267 266 265 265 265 264 264 264 265 264 264 265
232 233 236 238 241 244 245 244 243 244 245 246 246 248 250 252 253 252 248 243 244 249 252 254 256 259 262 264 266 269 271 272 272 273 274 276 277 276 273 270 262 258 257 246 251 272 277 277 280 283 285 289 294 296 297 299 301 303 302 298 295 292 288 287 287 286 285 282 280 277 275 274 272 270 268 266 264 264 265 265 265 264 264 263 262
232 233 235 238 242 245 244 244 245 245 247 247 246 247 249 252 254 253 252 249 245 246 252 255 257 258 261 264 267 268 269 270 270 267 267 266 266 266 268 268 262 258 260 255 249 265 277 279 281 284 286 288 290 291 293 295 296 298 297 295 294 291 289 288 287 287 288 287 286 284 281 279 277 274 272 268 265 263 263 264 265 264 263 262 261
230 232 235 238 241 244 244 244 246 246 247 248 246 246 248 251 252 252 253 253 251 249 253 257 258 257 259 263 266 265 263 267 270 266 262 260 260 260 262 265 264 260 261 262 255 255 270 279 281 282 283 283 286 289 291 292 292 292 291 290 290 288 286 285 284 284 285 286 287 286 285 283 280 278 276 273 268 263 261 261 263 263 262 261 260
226 232 235 237 239 242 243 243 245 246 247 247 246 247 249 251 252 253 254 255 256 255 256 258 258 256 256 260 265 264 258 263 270 268 263 262 264 265 264 265 266 265 263 265 262 257 262 273 278 279 281 283 285 287 288 290 291 291 289 287 285 283 283 283 282 282 284 286 286 285 285 283 281 280 279 277 273 266 261 259 260 261 261 260 258
221 229 233 235 236 239 240 241 243 245 246 247 246 247 248 250 252 253 254 256 258 258 259 261 260 259 258 260 264 264 258 260 267 267 264 264 265 266 266 265 266 268 267 267 268 263 259 264 273 278 281 284 286 288 287 287 288 288 287 287 285 283 282 281 281 283 286 288 288 287 286 285 283 282 280 278 276 271 264 259 258 259 259 258 256
219 224 229 232 234 236 238 239 240 243 246 246 246 247 247 248 251 252 252 254 257 259 261 262 262 261 261 263 265 264 261 262 265 265 265 265 265 267 269 269 268 268 267 267 267 265 260 262 270 275 277 278 281 284 287 287 285 282 281 282 283 284 285 284 282 285 289 291 291 291 290 288 288 287 285 281 278 274 268 261 257 256 256 256 254
218 220 223 228 232 235 237 237 239 241 244 245 246 248 247 246 250 252 251 251 254 257 260 261 261 260 261 264 266 265 265 268 268 267 267 266 266 268 271 273 270 266 264 263 262 260 259 261 266 270 273 275 274 276 282 286 284 281 277 275 274 278 284 286 286 289 292 290 290 292 293 294 293 290 288 285 279 273 266 260 256 254 253 252 251
218 220 220 223 229 233 235 236 237 239 241 243 244 246 247 246 247 249 250 250 250 254 258 260 261 260 260 262 263 264 267 269 270 270 269 268 267 268 272 272 267 264 263 261 257 257 258 260 263 266 270 272 271 271 277 277 275 277 278 274 270 272 279 284 289 295 297 294 292 289 288 293 296 293 289 284 277 269 263 259 256 254 252 251 251
217 219 220 220 223 227 230 233 235 235 236 238 240 242 243 244 245 245 246 248 250 251 255 258 260 261 261 260 260 262 265 269 272 274 274 272 269 268 270 269 265 264 264 261 261 262 263 264 265 266 267 268 267 267 267 260 263 276 279 271 266 273 281 284 289 297 301 300 296 290 286 289 291 288 284 280 275 271 265 260 258 257 256 254 252
218 219 220 219 219 222 225 228 230 231 232 236 240 242 242 242 242 241 242 247 251 251 253 255 257 259 259 259 260 263 267 271 275 276 277 277 274 272 272 269 265 264 264 266 269 271 272 273 271 270 271 270 267 266 267 267 269 275 275 266 265 276 287 294 299 302 302 298 293 288 287 287 283 279 277 275 274 273 268 265 264 262 260 258 256
220 220 219 219 220 222 223 224 225 227 231 236 241 243 244 243 241 239 240 246 250 250 251 252 255 256 256 258 261 264 269 273 275 277 279 279 278 277 277 275 272 268 264 265 269 272 275 277 278 278 277 277 274 268 269 274 273 268 266 265 268 289 328 326 310 300 294 288 283 283 285 283 276 275 276 275 275 274 271 270 271 269 265 261 258
219 219 219 220 223 225 223 224 224 225 230 237 241 244 245 245 243 240 239 241 244 245 246 247 251 253 254 256 258 261 266 270 272 275 278 280 281 281 281 280 278 274 270 266 265 266 269 274 280 281 279 280 280 272 268 276 278 272 271 277 288 317 318 292 276 281 288 286 278 280 284 281 275 276 279 280 279 277 275 275 275 273 270 265 261
218 219 221 222 224 225 223 224 225 225 229 237 242 244 245 245 244 242 240 238 239 241 243 244 247 250 252 255 255 258 264 268 270 272 274 277 281 283 284 283 281 280 278 273 269 266 265 266 271 274 275 276 274 270 274 281 283 278 275 301 319 307 277 259 258 274 288 291 281 278 282 280 277 275 277 281 282 278 276 278 278 275 272 270 266
216 218 220 221 223 224 224 225 227 228 230 236 242 245 244 244 243 242 241 239 239 241 242 243 246 249 252 254 255 258 261 264 268 271 271 273 275 277 279 280 280 282 282 281 279 275 269 264 262 266 272 274 273 275 281 285 285 281 277 284 283 275 273 274 272 278 286 288 281 278 280 280 280 276 275 278 281 280 279 279 279 278 276 273 269
215 217 220 221 223 225 226 227 228 231 234 237 241 244 244 244 242 242 242 240 240 242 243 244 247 250 252 252 255 258 258 259 264 267 268 268 268 268 269 270 273 277 278 279 281 280 276 271 267 269 275 278 279 280 281 284 284 282 279 280 277 266 271 279 277 276 282 284 278 268 271 277 279 274 276 280 279 278 279 276 275 276 274 270 268
215 218 221 222 222 225 227 227 227 232 236 238 240 243 244 243 241 239 240 240 241 242 244 246 248 250 252 252 254 256 256 258 264 268 269 267 263 262 264 267 269 272 273 275 279 281 280 277 276 277 281 284 286 286 286 287 286 283 276 276 277 252 261 272 271 271 277 280 275 262 260 274 277 270 273 280 277 270 272 272 272 275 272 268 266
215 217 219 221 222 224 227 225 225 231 236 238 241 243 243 242 238 236 237 239 240 242 244 247 249 250 252 253 254 255 255 259 264 269 270 268 263 260 261 265 269 272 275 277 278 280 281 283 285 287 289 292 295 296 296 296 295 290 278 265 257 237 250 264 270 275 277 273 271 266 257 268 278 272 267 276 276 269 268 268 270 274 273 269 266
216 218 220 222 224 225 225 225 226 231 234 238 241 243 243 241 238 236 236 237 238 241 244 247 249 251 253 254 255 255 255 259 265 269 270 267 262 259 259 262 267 272 276 278 278 280 285 289 293 295 296 298 299 301 302 303 303 298 285 269 261 245 239 244 253 267 275 271 269 270 260 263 277 280 276 276 276 271 269 266 268 273 273 270 268
217 220 220 221 223 224 225 226 229 233 234 236 241 244 244 241 238 236 236 235 235 238 241 245 247 249 252 255 257 257 258 262 266 269 269 265 261 259 259 261 267 271 274 277 279 285 289 291 293 295 296 297 297 299 300 301 303 300 294 292 283 249 230 233 239 249 268 271 266 262 253 259 276 282 281 282 282 279 275 266 267 274 272 265 266